sat.trackr.live / text

‹ back to catalog

STARLINK-3375

NORAD 51114 · 2022-005L

PAYLOAD ACTIVE UNKNOWN

§ Identity

Operator
Country
US
Launch date
2022-01-19
Launch site
AFETR
Launch vehicle
Mass (kg)
RCS (m²)

Purposes: comms

External: N2YO · Heavens-Above · Gunter

§ Orbital elements

Epoch: 2026-09-20T03:51:05.209344Z

Period
94.01 min
Inclination
53.1589°
Eccentricity
0.0001485
Mean motion
15.31708058 rev/d
Perigee alt
469.7 km
Apogee alt
471.7 km
Semi-major
6,848.9 km
B*
2.0501e-5
RAAN
125.3548°
Arg perigee
86.5248°
Mean anomaly
273.5924°
Rev number
25,838

§ Raw data

STARLINK-33751 51114U 22005L   26263.16047696  .00000271  00000+0  20501-4 0  99902 51114  53.1589 125.3548 0001485  86.5248 273.5924 15.31708058258380

JSON: /api/v1/satellites/51114 · /tle

For live sub-satellite position, see the globe view (requires WebGL).

§ Visibility from observer

Set your observer location to see the next 7 days of passes ≥ 10°. The values pass through the URL so the page stays shareable.

No JS? Fill the form by hand. The geolocation button needs JavaScript.